TimeEDT,TemperatureF,Dew PointF,Humidity,Sea Level PressureIn,VisibilityMPH,Wind Direction,Wind SpeedMPH,Gust SpeedMPH,PrecipitationIn,Events,Conditions,WindDirDegrees,DateUTC
12:54 AM,52.0,45.0,77,30.13,10.0,WNW,3.5,-,N/A,,Clear,300,2012-10-23 04:54:00
1:54 AM,53.1,46.9,80,30.13,10.0,West,4.6,-,N/A,,Clear,280,2012-10-23 05:54:00
2:54 AM,55.0,48.0,77,30.12,10.0,WNW,4.6,-,N/A,,Clear,290,2012-10-23 06:54:00
3:54 AM,53.1,48.0,83,30.12,10.0,WNW,4.6,-,N/A,,Clear,300,2012-10-23 07:54:00
4:54 AM,52.0,46.9,83,30.12,10.0,WNW,4.6,-,N/A,,Clear,300,2012-10-23 08:54:00
5:54 AM,54.0,46.9,77,30.12,10.0,WNW,4.6,-,N/A,,Clear,290,2012-10-23 09:54:00
6:54 AM,55.0,48.0,77,30.14,10.0,WNW,4.6,-,N/A,,Clear,290,2012-10-23 10:54:00
7:54 AM,55.0,48.0,77,30.15,10.0,Calm,Calm,-,N/A,,Scattered Clouds,0,2012-10-23 11:54:00
8:54 AM,64.0,53.1,67,30.16,10.0,West,3.5,-,N/A,,Mostly Cloudy,280,2012-10-23 12:54:00
9:54 AM,68.0,51.1,55,30.17,10.0,WNW,6.9,-,N/A,,Overcast,290,2012-10-23 13:54:00
10:54 AM,71.1,52.0,51,30.16,10.0,West,4.6,-,N/A,,Clear,280,2012-10-23 14:54:00
11:54 AM,75.0,50.0,41,30.15,10.0,WNW,5.8,-,N/A,,Clear,300,2012-10-23 15:54:00
12:54 PM,77.0,46.0,33,30.13,10.0,Variable,5.8,-,N/A,,Mostly Cloudy,0,2012-10-23 16:54:00
1:54 PM,75.0,51.1,43,30.11,10.0,SSW,9.2,-,N/A,,Mostly Cloudy,210,2012-10-23 17:54:00
2:54 PM,75.0,51.1,43,30.10,10.0,SSW,11.5,-,N/A,,Clear,210,2012-10-23 18:54:00
3:54 PM,72.0,54.0,53,30.09,10.0,SSW,11.5,-,N/A,,Mostly Cloudy,200,2012-10-23 19:54:00
4:54 PM,70.0,52.0,53,30.09,10.0,SSW,12.7,-,N/A,,Clear,210,2012-10-23 20:54:00
5:54 PM,66.0,52.0,60,30.09,10.0,SW,9.2,-,N/A,,Clear,220,2012-10-23 21:54:00
6:54 PM,62.1,52.0,70,30.11,10.0,SSW,8.1,-,N/A,,Clear,210,2012-10-23 22:54:00
7:54 PM,62.1,53.1,72,30.11,10.0,South,4.6,-,N/A,,Clear,190,2012-10-23 23:54:00
8:54 PM,63.0,54.0,72,30.11,10.0,SW,8.1,-,N/A,,Clear,220,2012-10-24 00:54:00
9:54 PM,62.1,55.0,78,30.11,10.0,SSW,6.9,-,N/A,,Clear,210,2012-10-24 01:54:00
10:54 PM,63.0,55.0,75,30.11,10.0,SW,10.4,-,N/A,,Clear,220,2012-10-24 02:54:00
11:54 PM,62.1,54.0,75,30.11,10.0,SW,8.1,-,N/A,,Clear,220,2012-10-24 03:54:00